FW2365 Weather Reports


Display with metric or nautical units.
time (UTC)temp
F
wind
direction
speed
MPH
gust
MPH
rain 1hr
in
rain 24hr
in
rain mn
in
humidity
%
barometer
mb
20260508201607 55 183 0.0 0.0 0.00 0.00 0.00 69 1020.9
20260508201055 55 183 0.0 1.0 0.00 0.00 0.00 68 1020.9
20260508200552 55 183 0.0 2.0 0.00 0.00 0.00 68 1020.8
20260508200104 55 183 0.0 2.0 0.00 0.00 0.00 68 1020.8
20260508195551 56 183 0.0 0.0 0.00 0.00 0.00 68 1020.9
20260508195051 56 183 0.0 0.0 0.00 0.00 0.00 65 1020.8
20260508194551 56 183 0.0 0.0 0.00 0.00 0.00 65 1020.6
20260508194050 57 183 0.0 0.0 0.00 0.00 0.00 65 1020.6
20260508193550 57 183 0.0 0.0 0.00 0.00 0.00 65 1020.5
20260508193055 58 183 0.0 4.0 0.00 0.00 0.00 64 1020.5
20260508192552 58 183 0.0 4.0 0.00 0.00 0.00 63 1020.3
20260508192050 58 284 0.0 6.0 0.00 0.00 0.00 62 1020.3
20260508191551 58 284 0.0 6.0 0.00 0.00 0.00 62 1020.2
20260508191050 58 283 0.0 3.0 0.00 0.00 0.00 62 1020.1
20260508190550 58 284 1.0 5.0 0.00 0.00 0.00 62 1020.0
20260508190052 58 282 2.0 5.0 0.00 0.00 0.00 61 1019.9
20260508185549 59 271 2.0 6.0 0.00 0.00 0.00 61 1019.8
20260508185049 59 280 3.0 6.0 0.00 0.00 0.00 60 1019.7
20260508184549 59 266 2.0 10.0 0.00 0.00 0.00 60 1019.6
20260508184052 59 271 1.0 7.0 0.00 0.00 0.00 60 1019.6
20260508183649 59 262 2.0 6.0 0.00 0.00 0.00 59 1019.6
20260508183052 59 289 2.0 9.0 0.00 0.00 0.00 59 1019.6
20260508182549 60 279 2.0 10.0 0.00 0.00 0.00 59 1019.5
20260508182048 60 262 3.0 10.0 0.00 0.00 0.00 59 1019.4
20260508181608 60 276 4.0 10.0 0.00 0.00 0.00 58 1019.3
20260508181047 60 278 3.0 11.0 0.00 0.00 0.00 58 1019.3
20260508180547 60 290 5.0 11.0 0.00 0.00 0.00 58 1019.2
20260508180103 60 262 3.0 11.0 0.00 0.00 0.00 58 1019.2
20260508175546 60 291 2.0 8.0 0.00 0.01 0.00 58 1019.2
20260508175046 61 272 3.0 8.0 0.00 0.01 0.00 58 1019.2
20260508174546 61 255 4.0 10.0 0.00 0.01 0.00 58 1019.1
20260508174046 61 277 5.0 10.0 0.00 0.01 0.00 57 1019.1
20260508173547 61 285 4.0 9.0 0.00 0.01 0.00 57 1019.1
20260508173050 61 304 3.0 10.0 0.00 0.01 0.00 57 1019.1
20260508172545 61 274 4.0 10.0 0.00 0.01 0.00 57 1019.1
20260508172045 61 278 4.0 12.0 0.00 0.01 0.00 57 1019.0
20260508171546 61 304 7.0 12.0 0.00 0.01 0.00 56 1019.0
20260508171045 61 275 3.0 10.0 0.00 0.01 0.00 57 1019.0
20260508170544 61 259 3.0 12.0 0.00 0.01 0.00 57 1019.0
20260508170048 61 309 5.0 12.0 0.00 0.01 0.00 57 1019.0
20260508165544 61 275 4.0 14.0 0.00 0.01 0.00 56 1019.0
20260508165044 61 298 8.0 12.0 0.00 0.01 0.00 56 1018.9
20260508164544 61 309 5.0 14.0 0.00 0.01 0.00 56 1018.9
20260508164044 61 304 6.0 14.0 0.00 0.01 0.00 56 1019.0
20260508163545 61 285 8.0 15.0 0.00 0.01 0.00 56 1018.9
20260508163044 61 268 7.0 15.0 0.00 0.01 0.00 56 1018.8
20260508162544 61 319 8.0 15.0 0.00 0.01 0.00 56 1018.8
20260508162044 61 276 5.0 15.0 0.00 0.01 0.00 56 1018.8
20260508161545 61 269 8.0 15.0 0.00 0.01 0.00 56 1018.8
20260508161044 62 281 8.0 13.0 0.00 0.01 0.00 56 1018.7
20260508160542 62 276 6.0 14.0 0.00 0.01 0.00 57 1018.7
20260508160043 62 328 5.0 14.0 0.00 0.01 0.00 57 1018.8
20260508155542 62 295 8.0 13.0 0.00 0.01 0.00 56 1018.7
20260508155042 62 293 5.0 13.0 0.00 0.01 0.00 56 1018.7
20260508154552 62 327 7.0 13.0 0.00 0.01 0.00 55 1018.8
20260508154044 62 271 5.0 14.0 0.00 0.01 0.00 56 1018.7
20260508153542 62 295 8.0 14.0 0.00 0.01 0.00 55 1018.7
20260508153041 62 282 9.0 14.0 0.00 0.01 0.00 55 1018.7
20260508152540 62 289 5.0 14.0 0.00 0.01 0.00 55 1018.7
20260508152040 62 279 8.0 14.0 0.00 0.01 0.00 53 1018.7
20260508151542 63 270 7.0 16.0 0.00 0.01 0.00 53 1018.8
20260508151040 63 263 9.0 16.0 0.00 0.01 0.00 53 1018.7
20260508150542 63 296 6.0 15.0 0.00 0.01 0.00 54 1018.8
20260508150041 63 283 8.0 15.0 0.00 0.01 0.00 55 1018.8
20260508145539 63 262 7.0 15.0 0.00 0.01 0.00 52 1018.8
20260508145038 63 320 8.0 13.0 0.00 0.01 0.00 51 1018.8
20260508144538 64 258 6.0 13.0 0.00 0.01 0.00 53 1018.8
20260508144038 64 304 6.0 13.0 0.00 0.01 0.00 54 1018.9
20260508143537 64 314 7.0 13.0 0.00 0.01 0.00 53 1018.9
20260508143037 64 264 5.0 11.0 0.00 0.01 0.00 54 1019.0
20260508142536 64 309 6.0 13.0 0.00 0.01 0.00 59 1019.0
20260508142036 63 280 7.0 13.0 0.00 0.01 0.00 58 1019.0
20260508141547 63 304 8.0 13.0 0.00 0.01 0.00 59 1019.0
20260508141036 62 289 7.0 13.0 0.00 0.01 0.00 61 1019.0
20260508140535 62 304 7.0 13.0 0.00 0.01 0.00 62 1018.9
20260508140037 62 304 5.0 12.0 0.00 0.01 0.00 62 1019.0
20260508135535 62 260 6.0 14.0 0.00 0.05 0.00 62 1019.0
20260508135036 62 272 9.0 15.0 0.00 0.05 0.00 61 1019.0
20260508134534 63 282 8.0 15.0 0.00 0.05 0.00 60 1019.1
20260508134033 64 267 7.0 13.0 0.00 0.05 0.00 58 1019.1
20260508133532 64 281 5.0 12.0 0.00 0.05 0.00 58 1019.1
20260508133031 64 304 7.0 12.0 0.00 0.05 0.00 58 1019.1
20260508132530 64 272 5.0 14.0 0.00 0.05 0.00 60 1019.2
20260508132030 64 260 7.0 14.0 0.00 0.05 0.00 56 1019.2
20260508131530 64 314 4.0 10.0 0.00 0.05 0.00 61 1019.4
20260508131029 64 276 5.0 12.0 0.00 0.05 0.00 60 1019.4
20260508130529 64 293 5.0 13.0 0.00 0.05 0.00 61 1019.5
20260508130029 64 322 7.0 13.0 0.00 0.05 0.00 60 1019.4
20260508125529 64 314 5.0 13.0 0.00 0.07 0.00 59 1019.5
20260508125029 64 275 6.0 15.0 0.00 0.07 0.00 54 1019.5
20260508124529 64 285 8.0 15.0 0.00 0.07 0.00 53 1019.5
20260508124028 63 319 6.0 13.0 0.00 0.07 0.00 52 1019.6
20260508123528 63 287 8.0 13.0 0.00 0.07 0.00 51 1019.4
20260508123029 64 297 6.0 12.0 0.00 0.07 0.00 52 1019.5
20260508122527 64 286 6.0 11.0 0.00 0.07 0.00 52 1019.5
20260508122027 64 278 6.0 11.0 0.00 0.07 0.00 52 1019.4
20260508121527 64 314 8.0 14.0 0.00 0.07 0.00 53 1019.3
20260508121027 64 314 5.0 12.0 0.00 0.07 0.00 52 1019.3
20260508120525 63 291 7.0 14.0 0.00 0.07 0.00 53 1019.3
20260508120035 64 314 10.0 14.0 0.00 0.07 0.00 53 1019.2
20260508115525 64 289 7.0 13.0 0.00 0.07 0.00 54 1019.2
20260508115024 64 318 9.0 13.0 0.00 0.07 0.00 54 1019.3
20260508114523 64 280 6.0 12.0 0.00 0.07 0.00 54 1019.3
20260508114022 64 324 6.0 10.0 0.00 0.07 0.00 54 1019.3
20260508113521 64 299 4.0 11.0 0.00 0.07 0.00 57 1019.5
20260508113020 63 304 5.0 12.0 0.00 0.07 0.00 56 1019.5
20260508112519 63 320 8.0 12.0 0.00 0.07 0.00 55 1019.5
20260508112018 63 314 5.0 13.0 0.00 0.07 0.00 59 1019.5
20260508111517 63 295 7.0 13.0 0.00 0.07 0.00 55 1019.6
20260508111017 63 309 7.0 10.0 0.00 0.07 0.00 56 1019.6
20260508110521 63 314 5.0 11.0 0.00 0.07 0.00 59 1019.7
20260508110014 63 267 6.0 11.0 0.00 0.07 0.00 59 1019.8
20260508105513 62 276 3.0 10.0 0.00 0.07 0.00 63 1019.8
20260508105012 62 295 5.0 10.0 0.00 0.07 0.00 63 1019.9
20260508104510 62 314 4.0 9.0 0.00 0.07 0.00 63 1020.0
20260508104010 61 309 5.0 10.0 0.00 0.07 0.00 62 1020.0
20260508103508 61 304 3.0 10.0 0.00 0.07 0.00 62 1020.1
20260508103019 61 299 4.0 10.0 0.00 0.07 0.00 62 1020.2
20260508102506 60 304 6.0 11.0 0.00 0.07 0.00 62 1020.3
20260508102004 60 260 7.0 11.0 0.00 0.07 0.00 62 1020.3
20260508101507 60 294 4.0 9.0 0.00 0.07 0.00 66 1020.4
20260508101003 59 304 7.0 10.0 0.00 0.07 0.00 66 1020.3
20260508100500 59 325 4.0 10.0 0.00 0.07 0.00 67 1020.4
20260508100100 59 324 5.0 10.0 0.00 0.07 0.00 68 1020.3
20260508095601 59 304 6.0 10.0 0.00 0.07 0.00 71 1020.4
20260508095058 58 314 6.0 10.0 0.00 0.07 0.00 71 1020.4
20260508094612 58 322 6.0 10.0 0.00 0.07 0.00 71 1020.4
20260508094055 58 287 5.0 10.0 0.00 0.07 0.00 71 1020.5
20260508093554 58 338 5.0 9.0 0.00 0.07 0.00 72 1020.6
20260508093056 58 309 5.0 9.0 0.00 0.07 0.00 70 1020.7
20260508092553 57 314 2.0 8.0 0.00 0.07 0.00 75 1020.7
20260508092053 57 304 3.0 8.0 0.00 0.07 0.00 72 1020.8
20260508091550 57 314 2.0 9.0 0.00 0.07 0.00 73 1020.8
20260508091049 56 309 4.0 9.0 0.00 0.07 0.00 73 1020.9
20260508090548 56 318 5.0 8.0 0.00 0.07 0.00 72 1020.9
20260508090058 56 309 3.0 9.0 0.00 0.07 0.00 72 1021.0
20260508085545 56 304 5.0 9.0 0.00 0.18 0.00 74 1021.1
20260508085044 55 291 4.0 9.0 0.00 0.18 0.00 73 1021.1
20260508084543 55 276 5.0 8.0 0.00 0.18 0.00 74 1021.1
20260508084043 55 309 4.0 8.0 0.00 0.18 0.00 75 1021.2
20260508083542 55 284 4.0 8.0 0.00 0.18 0.00 77 1021.2
20260508083046 54 298 4.0 8.0 0.00 0.18 0.00 77 1021.3
20260508082540 54 295 3.0 9.0 0.00 0.18 0.00 74 1021.4
20260508082040 54 287 4.0 10.0 0.00 0.18 0.00 76 1021.4
20260508081541 54 304 6.0 10.0 0.00 0.18 0.00 76 1021.4
20260508081038 54 318 5.0 8.0 0.00 0.18 0.00 76 1021.4
20260508080538 54 289 3.0 8.0 0.00 0.18 0.00 77 1021.3
20260508080037 53 299 3.0 8.0 0.00 0.18 0.00 77 1021.4
20260508075533 53 357 0.0 6.0 0.00 0.18 0.00 78 1021.5
20260508075031 53 67 0.0 4.0 0.00 0.18 0.00 77 1021.5
20260508074531 53 29 0.0 3.0 0.00 0.18 0.00 78 1021.5
20260508074029 53 62 0.0 3.0 0.00 0.18 0.00 78 1021.5
20260508073527 52 111 0.0 3.0 0.00 0.18 0.00 80 1021.5
20260508073030 52 121 0.0 3.0 0.00 0.18 0.00 82 1021.5
20260508072524 52 96 0.0 2.0 0.00 0.18 0.00 85 1021.6
20260508072023 51 360 0.0 3.0 0.00 0.18 0.00 83 1021.6
20260508071528 50 360 0.0 3.0 0.00 0.18 0.00 86 1021.6
20260508071026 51 360 0.0 2.0 0.00 0.18 0.00 85 1021.7
20260508070521 51 360 0.0 3.0 0.00 0.18 0.00 84 1021.8
20260508070020 50 130 0.0 3.0 0.00 0.18 0.00 90 1021.8
20260508065518 49 309 0.0 4.0 0.00 0.18 0.00 89 1021.8
20260508065016 49 309 2.0 4.0 0.00 0.18 0.00 90 1021.8
20260508064528 48 309 2.0 4.0 0.00 0.18 0.00 93 1021.9
20260508064013 47 304 0.0 4.0 0.00 0.18 0.00 95 1021.9
20260508063512 46 168 0.0 0.0 0.00 0.18 0.00 97 1021.9
20260508063011 45 168 0.0 0.0 0.00 0.18 0.00 96 1021.8
20260508062508 44 168 0.0 0.0 0.00 0.18 0.00 96 1021.7
20260508062010 44 168 0.0 0.0 0.00 0.18 0.00 96 1021.6
20260508061515 44 168 0.0 0.0 0.00 0.18 0.00 96 1021.5
20260508061010 43 168 0.0 0.0 0.00 0.18 0.00 96 1021.5
20260508060506 43 168 0.0 0.0 0.00 0.18 0.00 96 1021.6
20260508060005 43 168 0.0 0.0 0.00 0.18 0.00 96 1021.6
20260508055505 43 309 0.0 0.0 0.00 0.18 0.00 96 1021.5
20260508055004 43 168 0.0 0.0 0.00 0.18 0.00 96 1021.5
20260508054504 43 168 0.0 0.0 0.00 0.18 0.00 96 1021.5
20260508054002 42 309 0.0 0.0 0.00 0.18 0.00 96 1021.5
20260508053502 42 168 0.0 0.0 0.00 0.18 0.00 96 1021.5
20260508053007 42 309 0.0 0.0 0.00 0.18 0.00 96 1021.5
20260508052502 42 168 0.0 0.0 0.00 0.18 0.00 96 1021.5
20260508052002 42 168 0.0 0.0 0.00 0.18 0.00 96 1021.5
20260508051501 42 168 0.0 0.0 0.00 0.18 0.00 96 1021.5
20260508051001 42 309 0.0 0.0 0.00 0.18 0.00 96 1021.4
20260508050501 42 309 0.0 0.0 0.00 0.18 0.00 96 1021.4
20260508050003 42 309 0.0 0.0 0.00 0.18 0.00 96 1021.4
20260508045600 42 309 0.0 0.0 0.00 0.18 0.00 96 1021.3
20260508045103 42 309 0.0 0.0 0.00 0.18 0.00 96 1021.4
20260508044603 42 168 0.0 0.0 0.00 0.18 0.00 96 1021.4
20260508044102 42 168 0.0 0.0 0.00 0.18 0.00 96 1021.4
20260508043558 42 309 0.0 0.0 0.00 0.18 0.00 96 1021.4
20260508043103 42 168 0.0 0.0 0.00 0.18 0.00 96 1021.4
20260508042557 42 168 0.0 0.0 0.00 0.18 0.00 96 1021.4
20260508042101 42 168 0.0 0.0 0.00 0.18 0.00 96 1021.4
20260508041558 42 168 0.0 0.0 0.00 0.18 0.00 96 1021.3
20260508041054 42 168 0.0 0.0 0.00 0.18 0.00 96 1021.3
20260508040556 42 168 0.0 0.0 0.00 0.18 0.00 95 1021.2
20260508040053 42 168 0.0 0.0 0.00 0.18 0.00 95 1021.2
20260508035553 42 168 0.0 0.0 0.00 0.18 0.00 96 1021.1
20260508035053 42 168 0.0 0.0 0.00 0.18 0.00 95 1021.0
20260508034557 42 309 0.0 0.0 0.00 0.18 0.00 95 1021.0
20260508034053 42 309 0.0 0.0 0.00 0.18 0.00 95 1021.1
20260508033552 42 168 0.0 0.0 0.00 0.18 0.00 95 1021.0
20260508032551 42 168 0.0 0.0 0.00 0.18 0.00 95 1021.0
20260508032051 42 168 0.0 0.0 0.00 0.18 0.00 95 1020.9
20260508031550 43 168 0.0 0.0 0.00 0.18 0.00 95 1020.9
20260508031051 43 168 0.0 2.0 0.00 0.18 0.00 95 1020.9
20260508030549 43 168 0.0 2.0 0.00 0.18 0.00 95 1020.8
20260508030048 43 168 0.0 1.0 0.00 0.18 0.00 95 1020.7
20260508025549 43 168 0.0 0.0 0.00 0.18 0.00 95 1020.7
20260508025048 43 168 0.0 0.0 0.00 0.18 0.00 95 1020.7
20260508024550 43 168 0.0 0.0 0.00 0.18 0.00 95 1020.7
20260508024051 43 168 0.0 0.0 0.00 0.18 0.00 95 1020.7
20260508023546 43 168 0.0 0.0 0.00 0.18 0.00 95 1020.7
20260508023050 43 169 0.0 0.0 0.00 0.18 0.00 95 1020.7
20260508022547 43 168 0.0 2.0 0.00 0.18 0.00 95 1020.7
20260508022048 43 168 0.0 3.0 0.00 0.18 0.00 94 1020.7
20260508021547 43 168 0.0 3.0 0.00 0.18 0.00 94 1020.7
20260508021044 44 168 0.0 4.0 0.00 0.18 0.00 94 1020.7
20260508020544 44 168 1.0 4.0 0.00 0.18 0.00 94 1020.8
20260508020044 44 168 1.0 2.0 0.00 0.18 0.00 94 1020.8
20260508015543 44 168 1.0 2.0 0.00 0.18 0.00 94 1020.8
20260508015043 44 168 1.0 3.0 0.00 0.18 0.00 94 1020.9
20260508014549 44 168 0.0 3.0 0.00 0.18 0.00 94 1021.0
20260508014046 44 174 0.0 3.0 0.00 0.18 0.00 94 1021.0
20260508013540 44 171 0.0 3.0 0.00 0.18 0.00 94 1021.0
20260508013044 44 170 0.0 4.0 0.00 0.18 0.00 94 1021.1
20260508012540 44 166 1.0 4.0 0.00 0.18 0.00 94 1021.1
20260508012040 44 186 0.0 0.0 0.00 0.18 0.00 94 1021.1
20260508011543 44 187 0.0 0.0 0.00 0.18 0.00 93 1021.1
20260508011039 44 187 0.0 0.0 0.00 0.18 0.00 93 1021.0
20260508010542 44 309 0.0 0.0 0.00 0.18 0.00 93 1021.0
20260508010037 44 187 0.0 0.0 0.00 0.18 0.00 93 1021.0
20260508005538 44 188 0.0 0.0 0.00 0.18 0.00 93 1021.0
20260508005037 44 188 0.0 0.0 0.00 0.18 0.00 93 1021.1
20260508004536 44 188 0.0 0.0 0.00 0.18 0.00 93 1021.1
20260508004036 45 188 0.0 0.0 0.00 0.18 0.00 93 1021.1
20260508003535 44 188 0.0 0.0 0.00 0.18 0.00 93 1021.1
20260508003054 45 188 0.0 0.0 0.00 0.18 0.00 93 1021.1
20260508002535 44 188 0.0 0.0 0.00 0.18 0.00 93 1021.0
20260508002035 44 188 0.0 0.0 0.00 0.18 0.00 93 1021.0
20260508001533 44 188 0.0 0.0 0.00 0.18 0.00 92 1021.2
20260508001033 44 188 0.0 0.0 0.00 0.18 0.00 92 1021.2
20260508000533 45 188 0.0 0.0 0.00 0.18 0.00 91 1021.2
20260508000031 45 188 0.0 0.0 0.00 0.18 0.00 91 1021.3
20260507235531 45 188 0.0 0.0 0.00 0.18 0.00 92 1021.3
20260507235031 45 309 0.0 0.0 0.00 0.18 0.00 91 1021.3
20260507234531 46 188 0.0 3.0 0.00 0.18 0.00 92 1021.4
20260507234030 45 188 1.0 3.0 0.00 0.18 0.00 93 1021.4
20260507233530 45 167 0.0 1.0 0.00 0.18 0.00 92 1021.4
20260507233034 45 167 0.0 0.0 0.00 0.18 0.00 92 1021.4
20260507232529 45 167 0.0 0.0 0.00 0.18 0.00 92 1021.4
20260507232029 45 166 0.0 0.0 0.00 0.18 0.00 92 1021.5
20260507231531 45 167 0.0 0.0 0.00 0.18 0.00 91 1021.5
20260507231030 45 167 0.0 0.0 0.00 0.18 0.00 91 1021.5
20260507230529 45 167 0.0 0.0 0.00 0.18 0.00 91 1021.5
20260507230028 45 167 0.0 3.0 0.00 0.18 0.00 91 1021.6
20260507225528 45 167 0.0 3.0 0.00 0.18 0.00 91 1021.6
20260507225026 46 260 0.0 0.0 0.00 0.18 0.00 90 1021.6
20260507224526 46 260 0.0 0.0 0.00 0.18 0.00 90 1021.5
20260507224024 46 309 0.0 0.0 0.00 0.18 0.00 90 1021.5
20260507223523 46 258 0.0 2.0 0.00 0.18 0.00 89 1021.5
20260507223022 46 259 1.0 2.0 0.00 0.18 0.00 89 1021.5
20260507222522 46 259 0.0 0.0 0.00 0.18 0.00 89 1021.5
20260507222021 47 258 0.0 0.0 0.00 0.18 0.00 89 1021.5
20260507221525 47 258 0.0 0.0 0.00 0.18 0.00 88 1021.3
20260507221024 47 259 0.0 0.0 0.00 0.18 0.00 88 1021.4
20260507220522 47 260 0.0 0.0 0.00 0.18 0.00 88 1021.4
20260507220017 47 260 0.0 0.0 0.00 0.18 0.00 88 1021.4
20260507215517 47 258 0.0 0.0 0.00 0.18 0.18 88 1021.4
20260507215016 47 258 0.0 0.0 0.00 0.18 0.18 88 1021.3
20260507214516 47 258 0.0 0.0 0.00 0.18 0.18 88 1021.3
20260507214016 47 259 0.0 2.0 0.00 0.18 0.18 88 1021.3
20260507213515 47 259 0.0 2.0 0.00 0.18 0.18 87 1021.2
20260507213014 47 259 0.0 0.0 0.00 0.18 0.18 87 1021.2
20260507212514 47 260 0.0 0.0 0.00 0.18 0.18 87 1021.1
20260507212016 47 260 0.0 2.0 0.00 0.18 0.18 87 1021.1
20260507211515 47 260 0.0 3.0 0.00 0.18 0.18 87 1021.1
20260507211013 47 260 0.0 2.0 0.00 0.18 0.18 87 1021.1
20260507210513 47 218 0.0 2.0 0.00 0.18 0.18 87 1021.1
20260507210013 48 309 0.0 0.0 0.00 0.18 0.18 87 1021.1
20260507205514 48 309 0.0 0.0 0.00 0.18 0.18 88 1021.2
20260507205016 48 309 0.0 0.0 0.00 0.18 0.18 88 1021.2
20260507204513 48 216 0.0 0.0 0.00 0.18 0.18 88 1021.2
20260507204013 48 309 0.0 0.0 0.00 0.18 0.18 87 1021.2
20260507203513 48 309 0.0 2.0 0.00 0.18 0.18 88 1021.1
20260507203015 48 215 0.0 2.0 0.00 0.18 0.18 87 1021.1
20260507202511 48 216 0.0 2.0 0.00 0.18 0.18 87 1021.1
20260507202011 48 309 0.0 2.0 0.00 0.18 0.18 87 1021.1